This is the latest recevied weather packets stored in our database for station/object KE5AKC. If no packets are shown the sender has not sent any weather packets the latest 10 day(s).
| Time | Temp. | Humidity | Pressure | Rain* | Wind** | Luminosity | Snow |
|---|---|---|---|---|---|---|---|
| 1777737880 | 19.44° C | 57% | 1020.5 hPa | 0 mm | - | 815 W/m² | - |
| 1777737573 | 20° C | 58% | 1020.5 hPa | 0 mm | - | 803 W/m² | - |
| 1777737272 | 19.44° C | 62% | 1020.5 hPa | 0 mm | - | 789 W/m² | - |
| 1777736967 | 18.89° C | 61% | 1020.5 hPa | 0 mm | - | 776 W/m² | - |
| 1777736066 | 18.33° C | 64% | 1020.5 hPa | 0 mm | - | 729 W/m² | - |
| 1777735763 | 18.33° C | 66% | 1020.5 hPa | 0 mm | - | 711 W/m² | - |
| 1777735461 | 18.33° C | 67% | 1020.5 hPa | 0 mm | - | 698 W/m² | - |
| 1777735158 | 18.33° C | 68% | 1020.8 hPa | 0 mm | - | 681 W/m² | - |
| 1777734855 | 18.33° C | 70% | 1020.5 hPa | 0 mm | - | 662 W/m² | - |
| 1777734553 | 17.78° C | 70% | 1020.5 hPa | 0 mm | - | 648 W/m² | - |
| 1777734249 | 17.78° C | 71% | 1020.5 hPa | 0 mm | - | 627 W/m² | - |
| 1777733945 | 17.78° C | 71% | 1020.5 hPa | 0 mm | - | 611 W/m² | - |
| 1777733642 | 17.22° C | 72% | 1020.5 hPa | 0 mm | - | 591 W/m² | - |
| 1777733338 | 17.22° C | 73% | 1020.5 hPa | 0 mm | - | 572 W/m² | - |
| 1777733035 | 17.22° C | 73% | 1020.5 hPa | 0 mm | - | 554 W/m² | - |
| 1777732731 | 17.22° C | 75% | 1020.5 hPa | 0 mm | - | 534 W/m² | - |
| 1777732428 | 16.67° C | 76% | 1020.2 hPa | 0 mm | - | 515 W/m² | - |
| 1777732126 | 16.67° C | 75% | 1020.5 hPa | 0 mm | - | 494 W/m² | - |
| 1777731823 | 16.11° C | 78% | 1020.5 hPa | 0 mm | - | 472 W/m² | - |
| 1777731519 | 15.56° C | 78% | 1020.5 hPa | 0 mm | - | 452 W/m² | - |
| 1777731218 | 15.56° C | 80% | 1020.2 hPa | 0 mm | - | 429 W/m² | - |
| 1777730915 | 15.56° C | 80% | 1020.2 hPa | 0 mm | - | 397 W/m² | - |
| 1777730612 | 15° C | 81% | 1019.8 hPa | 0 mm | - | 363 W/m² | - |
| 1777730309 | 15° C | 82% | 1020.2 hPa | 0 mm | - | 328 W/m² | - |
| 1777730006 | 15° C | 83% | 1019.8 hPa | 0 mm | - | 251 W/m² | - |
* Rain latest hour (hover to see other rain measurements)
** Current wind speed in m/s (hover to see current wind gust speed)